Weather History for Montauk, NY

Change the Weather History Date:

Saturday, January 4, 2014

  Actual Average (KHTO) Record (KHTO)
Temperature  
Mean Temperature 23 °F -  
Max Temperature 37 °F 39 °F - (-1)
Min Temperature 9 °F 25 °F - (-1)
Degree Days  
Heating Degree Days 42    
Moisture  
Dew Point 14 °F    
Average Humidity 68    
Maximum Humidity 79    
Minimum Humidity 50    
Precipitation  
Precipitation 0.00 in - - ()
Sea Level Pressure  
Sea Level Pressure 30.43 in    
Wind  
Wind Speed 7 mph (WSW)    
Max Wind Speed 9 mph    
Max Gust Speed 18 mph    
Averages and records for this station are not official NWS values.
T = Trace of Precipitation, MM = Missing Value Source: NWS Daily Summary

Daily Weather History Graph

Daily Weather History Graph

Search for Another Location

Airport:

Trip Planner

Search our weather history database for the weather conditions in past years. The results will help you decide how hot, cold, wet, or windy it might be!

Date:

Astronomy

Jan. 04, 2014 Rise Set
Actual Time 7:13 AM EST 4:32 PM EST
Civil Twilight 6:42 AM EST 5:03 PM EST
Nautical Twilight 6:07 AM EST 5:37 PM EST
Astronomical Twilight 5:34 AM EST 6:11 PM EST
Moon 9:14 AM EST (1/4) 8:51 PM EST (1/4)
Length of Visible Light 10h 21m
Length of Day
9h 19m
Waxing Crescent, 15% of the Moon is Illuminated
Jan 4
Waxing Crescent
Jan 7
First Quarter
Jan 15
Full
Jan 24
Last Quarter
Jan 30
New

Hourly Weather History & Observations

Time (EST) Temp. Windchill Dew Point Humidity Pressure Visibility Wind Dir Wind Speed Gust Speed Precip Events Conditions
12:54 AM 10.9 °F -0.8 °F 1.9 °F 67% 30.46 in - NW 8.1 mph - N/A   Unknown
1:54 AM 10.9 °F -1.8 °F 1.9 °F 67% 30.47 in - NW 9.2 mph - N/A   Unknown
2:54 AM 10.9 °F 2.9 °F 1.9 °F 67% 30.49 in - NW 4.6 mph - N/A   Unknown
3:54 AM 10.9 °F 4.7 °F 1.0 °F 64% 30.48 in - NW 3.5 mph - N/A   Unknown
4:54 AM 10.9 °F 1.4 °F 1.9 °F 67% 30.48 in - WNW 5.8 mph - N/A   Unknown
5:54 AM 9.0 °F - 1.0 °F 70% 30.49 in - Calm Calm - N/A   Unknown
6:54 AM 12.9 °F 6.9 °F 5.0 °F 71% 30.52 in - WSW 3.5 mph - N/A   Unknown
7:54 AM 12.9 °F 3.8 °F 7.0 °F 77% 30.54 in - SW 5.8 mph - N/A   Unknown
8:54 AM 16.0 °F 7.4 °F 9.0 °F 74% 30.54 in - SW 5.8 mph - N/A   Unknown
9:54 AM 19.0 °F 9.0 °F 3.0 °F 50% 30.54 in - WSW 8.1 mph - N/A   Unknown
10:54 AM 21.0 °F 16.2 °F 9.0 °F 60% 30.51 in - SW 3.5 mph - N/A   Unknown
11:54 AM 27.0 °F 19.5 °F 18.0 °F 69% 30.48 in - Variable 6.9 mph - N/A   Unknown
12:54 PM 30.0 °F 22.4 °F 19.9 °F 66% 30.43 in - WSW 8.1 mph - N/A   Unknown
1:54 PM 30.9 °F 24.3 °F 19.9 °F 64% 30.42 in - SW 6.9 mph 18.4 mph N/A   Unknown
2:54 PM 30.9 °F 23.5 °F 21.0 °F 67% 30.39 in - SW 8.1 mph - N/A   Unknown
3:54 PM 32.0 °F 26.4 °F 21.9 °F 66% 30.39 in - Variable 5.8 mph - N/A   Unknown
4:54 PM 32.0 °F 24.8 °F 21.9 °F 66% 30.37 in - SW 8.1 mph - N/A   Unknown
5:54 PM 33.1 °F 25.5 °F 23.0 °F 66% 30.36 in - SW 9.2 mph - N/A   Unknown
6:54 PM 34.0 °F 26.6 °F 24.1 °F 67% 30.36 in - SW 9.2 mph - N/A   Unknown
7:54 PM 36.0 °F 29.0 °F 26.1 °F 67% 30.34 in - SSW 9.2 mph - N/A   Unknown
8:54 PM 37.0 °F 31.0 °F 27.0 °F 67% 30.33 in - SW 8.1 mph - N/A   Unknown
9:54 PM 33.1 °F 27.7 °F 26.1 °F 75% 30.33 in - West 5.8 mph - N/A   Unknown
10:54 PM 32.0 °F 24.2 °F 26.1 °F 79% 30.33 in - West 9.2 mph - N/A   Unknown
11:54 PM 32.0 °F 24.2 °F 26.1 °F 79% 30.32 in - WSW 9.2 mph - N/A   Unknown